Regional Weather Roundup
Issued by NWS Charleston, SC

Current Version | Previous Version | Graphics & Text | Print | Product List | Glossary On
Versions: 1 2 3 4 5 6 7 8 9 10 11 12 13 14 15 16 17 18 19 20 21 22 23 24 25 26 27 28 29 30 31 32 33 34 35 36 37 38 39 40 41 42 43 44 45 46 47 48 49 50
001
ASUS42 KCHS 261927
RWRCHS

REGIONAL WEATHER ROUNDUP
NATIONAL WEATHER SERVICE CHARLESTON SC
300 PM EDT SUN MAR 26 2017

NOTE: "FAIR" INDICATES FEW OR NO CLOUDS BELOW 12,000 FEET WITH NO
SIGNIFICANT WEATHER AND/OR OBSTRUCTIONS TO VISIBILITY.

NOT ALL STATIONS ARE QUALITY CONTROLLED. USE DATA WITH CAUTION...
ESPECIALLY DEWPOINT OBSERVATIONS.

SCZ027-030-031-034>040-042>050-262000-
...SOUTHEAST SOUTH CAROLINA...

CITY           SKY/WX    TMP DP  RH WIND       PRES   REMARKS
N CHARLESTON   MOSUNNY   78  52  40 SW9G17    30.16F
WATERFRONT PRK   N/A     69  58  68 S9        30.16F
JOHNS ISLAND   FAIR      77  59  53 S12       30.17F
PINOPOLIS        N/A     79  54  41 VRB2      30.09F
MONCKS CORNER  CLOUDY    75  48  38 S8        30.14F
SUMMERVILLE    MOCLDY    79  52  38 S7        30.15F
BEAUFORT MCAS  SUNNY     79  60  52 S10G17    30.15F
BEAUFORT ARPT  FAIR      77  59  53 S9        30.15F
HILTON HEAD IS NOT AVBL
WALTERBORO     MOCLDY    75  55  50 S9        30.15F
ALLENDALE      HVY RAIN  68  61  77 CALM      30.14R VSB 1

...SOUTHERN MIDLANDS AND PEE DEE...

CITY           SKY/WX    TMP DP  RH WIND       PRES   REMARKS
GEORGETOWN     MOCLDY    75  52  43 SE14G20   30.18F
KINGSTREE      MOCLDY    77  50  38 S7        30.14F
ORANGEBURG     MOSUNNY   78  53  41 S13       30.13F
BARNWELL       MOCLDY    75  59  57 CALM      30.13F
AIKEN          CLOUDY    72  59  64 S9        30.16F
MANNING        FAIR      77  52  41 SW12      30.14F
COLUMBIA       CLOUDY    78  54  43 S9        30.11F
SUMTER         MOSUNNY   79  53  39 S12       30.11F
FLORENCE       MOSUNNY   78  52  40 SW15      30.15F
MYRTLE BEACH   MOSUNNY   73  55  53 SE13      30.20F
N MYRTLE BEACH MOSUNNY   72  56  57 SE10      30.19F

$$

GAZ063-065-086>088-099>101-113>116-118-119-134>141-150-262000-
...SOUTHEAST GEORGIA...

CITY           SKY/WX    TMP DP  RH WIND       PRES   REMARKS
SAVANNAH ARPT  MOSUNNY   81  56  42 S14       30.14F
HUNTER AAF     MOSUNNY   77  61  57 SE14      30.12F
FORT STEWART   PTSUNNY   78  59  52 SE10      30.11F
STATESBORO     CLOUDY    79  61  54 E6        30.12F
SYLVANIA       CLOUDY   N/A N/A N/A SE8       30.14F
CLAXTON        FAIR      80  59  49 E7        30.12F

...CSRA...CENTRAL AND FAR SOUTHEAST GEORGIA...

CITY           SKY/WX    TMP DP  RH WIND       PRES   REMARKS
THOMSON        PTSUNNY   76  56  48 SW5       30.15F
AUGUSTA-BUSH   PTSUNNY   79  57  46 S10       30.11F
AUGUSTA-DANIEL PTSUNNY   78  54  43 SE12G20   30.12F
SWAINSBORO     MOCLDY    77  54  44 S7        30.12F
VIDALIA        CLOUDY    81  55  41 S9        30.11F
EASTMAN        MOCLDY    81  43  26 S6        30.12F
HAZLEHURST     FAIR      80  59  48 S6        30.10F
ALMA           CLOUDY    78  57  48 SE8       30.11F
WAYCROSS       PTSUNNY   83  60  44 SW7       30.11F
JESUP          CLOUDY    79  50  36 SE5       30.12F
BAXLEY         CLOUDY    81  59  47 S8        30.11F
BRUNSWICK      SUNNY     77  63  61 SE15      30.14F
SAINT SIMONS   SUNNY     74  62  66 SE16      30.15F

$$

SCZ027-028-034-036>038-045-046-048>050-GAZ119-141-262000-
...LAKE AND SUPPLEMENTAL COASTAL OBSERVATIONS...

STATION/POSITION TIME  TEMP    WIND        PRES    WAVE   SWELL
                       AIR SEA DIR/SP/G            HT/PER HT/PER/DIR
                 (UTC) (F)     (DEG/KT/KT) (MB)    (FT/S) (FT/S/D)
WINYAH BAY       1830   73     160/ 10     1022.0F
LAKE MURRAY      1850   71     240/  5/  8 1019.6F
ACE BASIN NERRS  1830   76     170/  3     1022.0S
FORT PULASKI     1900   74 63  170/  8/ 12 1021.4
SAPELO ISLAND    1900   78     140/  9     1021.0

$$

ANZ835-935-AMZ111-154-330-350-352-354-370-450-454-472-262000-
...C-MAN AND BUOY OBSERVATIONS...

STATION/POSITION TIME  TEMP    WIND        PRES    WAVE   SWELL
                       AIR SEA DIR/SP/G            HT/PER HT/PER/DIR
                 (UTC) (F)     (DEG/KT/KT) (MB)    (FT/S) (FT/S/D)
BUOY 41004       1850   72 73  140/ 10/ 12 1021.8F   4/ 9   3/140/ 9
BUOY 41008       1850   66 65  120/ 10/ 14 1021.1F   4/ 9   3/110/ 9
FOLLY BEACH CMAN 1900   67     110/  6/  6 1022.6F
CAPERS NEARSHORE 1908   68     120/  6/  8 1021.7F
FRIPP NEARSHORE  1908   67 62  120/  4/  6 1021.3F


STATION/POSITION TIME  TEMP    WIND        PRES    WAVE   SWELL
                       AIR SEA DIR/SP/G            HT/PER HT/PER/DIR
                 (UTC) (F)     (DEG/KT/KT) (MB)    (FT/S) (FT/S/D)
5E ST. MARYS GA  1900      67                N/A     3/ 8
FRYING PAN BUOY  1910   72 75  150/ 12/ 16 1022.5
BUOY 41025       1850   70 75  160/  8/ 10 1024.0    3/ 8   3/150/ 8
CAPE LOOKOUT NC  1900   65     120/  7/  7 1023.2F
BUOY 41002       1850   68 72   80/ 12/ 16 1023.2F   5/ 9   5/130/ 9
BUOY 41010       NOT AVBL
ST AUGUSTINE FL  1900   69 70   70/  9/  9 1021.3F


$$




USA.gov is the U.S. government's official web portal to all federal, state and local government web resources and services.